User: anonymous   Login
Location: Ceske Budejovice
(48.9830°N, 14.4670°E)
Time: 08:38:05
(UTC+02:00)
Language:

ISS - Orbit

View from above orbital plane
View from above orbital plane
View from above satellite
View from above satellite

Ground track
Ground track

The orbit data is extracted from the following two-line orbital elements,

1 25544U 98067A   24142.01998021  .00027681  00000-0  46315-3 0  9999
2 25544  51.6387  90.0061 0003311 189.0337 263.8557 15.51663725454333
Epoch (UTC): 21 May 2024 00:28:46
Eccentricity: 0.0003311
inclination: 51.6387°
perigee height: 409 km
apogee height: 414 km
right ascension of ascending node: 90.0061°
argument of perigee: 189.0337°
revolutions per day: 15.51663725
mean anomaly at epoch: 263.8557°
orbit number at epoch: 45433

The dashed part of the orbit path shows where the satellite is in the earth's shadow,  

DLR